| time (UTC) | temp F | wind direction | speed MPH | gust MPH | rain 1hr in | rain 24hr in | rain mn in | humidity % | barometer mb |
| 20260503040052 | 55 | 149 | 3.0 | 9.0 | 0.00 | 0.00 | 0.00 | 53 | 1012.5 |
| 20260503034538 | 55 | 136 | 2.0 | 9.0 | 0.00 | 0.00 | 0.00 | 55 | 1012.6 |
| 20260503033013 | 55 | 146 | 4.0 | 8.0 | 0.00 | 0.00 | 0.00 | 58 | 1012.8 |
| 20260503031555 | 56 | 153 | 3.0 | 7.0 | 0.00 | 0.00 | 0.00 | 63 | 1013.0 |
| 20260503030035 | 56 | 155 | 2.0 | 5.0 | 0.00 | 0.00 | 0.00 | 60 | 1013.1 |
| 20260503024512 | 56 | 155 | 2.0 | 4.0 | 0.00 | 0.00 | 0.00 | 54 | 1013.1 |
| 20260503023055 | 57 | 150 | 1.0 | 4.0 | 0.00 | 0.00 | 0.00 | 56 | 1013.1 |
| 20260503021540 | 57 | 192 | 0.0 | 5.0 | 0.00 | 0.00 | 0.00 | 54 | 1013.2 |
| 20260503020025 | 57 | 186 | 1.0 | 4.0 | 0.00 | 0.00 | 0.00 | 47 | 1013.2 |
| 20260503014504 | 58 | 203 | 1.0 | 4.0 | 0.00 | 0.00 | 0.00 | 46 | 1013.2 |
| 20260503013043 | 59 | 170 | 1.0 | 5.0 | 0.00 | 0.00 | 0.00 | 45 | 1013.2 |
| 20260503011532 | 59 | 173 | 0.0 | 2.0 | 0.00 | 0.00 | 0.00 | 44 | 1013.3 |
| 20260503010010 | 60 | 198 | 0.0 | 3.0 | 0.00 | 0.00 | 0.00 | 42 | 1013.3 |
| 20260503004550 | 61 | 226 | 1.0 | 5.0 | 0.00 | 0.00 | 0.00 | 39 | 1013.3 |
| 20260503003033 | 61 | 230 | 2.0 | 8.0 | 0.00 | 0.00 | 0.00 | 37 | 1013.4 |
| 20260503001517 | 62 | 212 | 1.0 | 7.0 | 0.00 | 0.00 | 0.00 | 37 | 1013.5 |
| 20260503000053 | 62 | 263 | 1.0 | 9.0 | 0.00 | 0.00 | 0.00 | 36 | 1013.6 |
| 20260502234548 | 63 | 314 | 3.0 | 11.0 | 0.00 | 0.00 | 0.00 | 35 | 1013.8 |
| 20260502233014 | 63 | 285 | 2.0 | 13.0 | 0.00 | 0.00 | 0.00 | 34 | 1014.0 |
| 20260502231559 | 63 | 223 | 3.0 | 11.0 | 0.00 | 0.00 | 0.00 | 33 | 1014.1 |
| 20260502230039 | 63 | 271 | 2.0 | 11.0 | 0.00 | 0.00 | 0.00 | 34 | 1014.1 |
| 20260502224522 | 63 | 245 | 3.0 | 11.0 | 0.00 | 0.00 | 0.00 | 34 | 1014.3 |
| 20260502223056 | 62 | 257 | 4.0 | 11.0 | 0.00 | 0.00 | 0.00 | 35 | 1014.5 |
| 20260502223005 | 62 | 280 | 4.0 | 11.0 | 0.00 | 0.00 | 0.00 | 34 | 1014.5 |
| 20260502221543 | 63 | 266 | 4.0 | 13.0 | 0.00 | 0.00 | 0.00 | 32 | 1014.7 |
| 20260502220032 | 64 | 188 | 5.0 | 12.0 | 0.00 | 0.00 | 0.00 | 31 | 1014.7 |
| 20260502214511 | 64 | 313 | 2.0 | 12.0 | 0.00 | 0.00 | 0.00 | 32 | 1015.0 |
| 20260502213050 | 64 | 252 | 4.0 | 14.0 | 0.00 | 0.00 | 0.00 | 31 | 1015.1 |
| 20260502211530 | 63 | 263 | 8.0 | 16.0 | 0.00 | 0.00 | 0.00 | 31 | 1015.3 |
| 20260502210014 | 64 | 243 | 3.0 | 8.0 | 0.00 | 0.00 | 0.00 | 35 | 1015.5 |
| 20260502204558 | 63 | 257 | 5.0 | 12.0 | 0.00 | 0.00 | 0.00 | 32 | 1015.7 |
| 20260502203035 | 62 | 248 | 6.0 | 14.0 | 0.00 | 0.00 | 0.00 | 34 | 1016.1 |
| 20260502201514 | 62 | 232 | 6.0 | 17.0 | 0.00 | 0.00 | 0.00 | 33 | 1016.3 |
| 20260502200048 | 62 | 249 | 4.0 | 16.0 | 0.00 | 0.00 | 0.00 | 32 | 1016.6 |
| 20260502194538 | 61 | 252 | 4.0 | 11.0 | 0.00 | 0.00 | 0.00 | 34 | 1016.7 |
| 20260502193004 | 61 | 221 | 8.0 | 13.0 | 0.00 | 0.00 | 0.00 | 33 | 1016.9 |
| 20260502191543 | 61 | 257 | 3.0 | 12.0 | 0.00 | 0.00 | 0.00 | 33 | 1017.1 |
| 20260502190020 | 61 | 256 | 7.0 | 16.0 | 0.00 | 0.00 | 0.00 | 33 | 1017.3 |
| 20260502184600 | 60 | 207 | 3.0 | 16.0 | 0.00 | 0.00 | 0.00 | 32 | 1017.4 |
| 20260502184506 | 60 | 213 | 5.0 | 16.0 | 0.00 | 0.00 | 0.00 | 34 | 1017.5 |
| 20260502183058 | 60 | 325 | 7.0 | 14.0 | 0.00 | 0.00 | 0.00 | 34 | 1017.7 |
| 20260502181534 | 59 | 323 | 4.0 | 9.0 | 0.00 | 0.00 | 0.00 | 37 | 1017.8 |